AW673 Weather Reports


Display with metric or nautical units.
time (UTC)temp
F
wind
direction
speed
MPH
gust
MPH
rain 1hr
in
rain 24hr
in
rain mn
in
humidity
%
barometer
mb
20260509032103 70 116 7.0 9.0 0.00 0.00 0.00 57 1023.2
20260509031021 70 173 2.0 5.0 0.00 0.00 0.00 58 1023.3
20260509030020 71 141 5.0 8.0 0.00 0.00 0.00 55 1023.3
20260509025019 70 114 3.0 5.0 0.00 0.00 0.00 55 1023.3
20260509024017 70 239 3.0 6.0 0.00 0.00 0.00 54 1023.5
20260509023035 70 215 4.0 7.0 0.00 0.00 0.00 54 1023.6
20260509022045 68 112 2.0 3.0 0.00 0.00 0.00 55 1023.7
20260509021044 69 201 3.0 4.0 0.00 0.00 0.00 56 1023.9
20260509020042 69 137 3.0 6.0 0.00 0.00 0.00 55 1023.9
20260509015041 70 127 3.0 4.0 0.00 0.00 0.00 53 1024.1
20260509014039 69 230 4.0 5.0 0.00 0.00 0.00 54 1024.2
20260509013038 69 231 4.0 4.0 0.00 0.00 0.00 54 1024.3
20260509012036 69 248 4.0 7.0 0.00 0.00 0.00 54 1024.5
20260509011035 68 182 1.0 3.0 0.00 0.00 0.00 56 1024.5
20260509010155 68 214 5.0 6.0 0.00 0.00 0.00 55 1024.6
20260509005033 68 204 3.0 6.0 0.00 0.00 0.00 55 1024.6
20260509004032 67 158 8.0 12.0 0.00 0.00 0.00 57 1024.8
20260509003030 68 241 2.0 6.0 0.00 0.00 0.00 57 1024.7
20260509002110 67 167 5.0 6.0 0.00 0.00 0.00 59 1024.7
20260509001028 66 190 5.0 7.0 0.00 0.00 0.00 61 1024.8
20260509000026 66 157 6.0 11.0 0.00 0.00 0.00 62 1024.7
20260508235045 65 187 7.0 13.0 0.00 0.00 0.00 62 1025.0
20260508234024 64 202 3.0 5.0 0.00 0.00 0.00 63 1024.9
20260508233022 63 205 3.0 5.0 0.00 0.00 0.00 64 1025.0
20260508232021 63 177 4.0 5.0 0.00 0.00 0.00 66 1025.0
20260508231040 63 160 6.0 9.0 0.00 0.00 0.00 66 1024.9
20260508230018 62 161 4.0 6.0 0.00 0.00 0.00 67 1025.0
20260508225037 59 163 3.0 5.0 0.00 0.00 0.00 70 1025.0
20260508224016 59 179 4.0 6.0 0.00 0.00 0.00 70 1025.1
20260508223045 58 147 3.0 4.0 0.00 0.00 0.00 72 1025.0
20260508222044 58 211 3.0 5.0 0.00 0.00 0.00 72 1025.0
20260508221043 57 202 2.0 3.0 0.00 0.00 0.00 72 1024.9
20260508220041 56 176 2.0 4.0 0.00 0.00 0.00 72 1024.8
20260508215041 56 181 3.0 5.0 0.00 0.00 0.00 72 1024.7
20260508214039 56 130 3.0 4.0 0.00 0.00 0.00 72 1024.6
20260508213118 55 183 4.0 4.0 0.00 0.00 0.00 72 1024.3
20260508212036 55 167 3.0 4.0 0.00 0.00 0.00 72 1024.2
20260508211035 54 208 3.0 6.0 0.00 0.00 0.00 73 1024.1
20260508210034 53 171 4.0 5.0 0.00 0.00 0.00 75 1024.1
20260508205033 51 170 2.0 4.0 0.00 0.00 0.00 80 1023.9
20260508204031 52 166 3.0 4.0 0.00 0.00 0.00 78 1023.7
20260508203029 53 210 2.0 3.0 0.00 0.00 0.00 75 1023.4
20260508202028 53 139 1.0 3.0 0.00 0.00 0.00 74 1023.4
20260508201028 53 174 3.0 4.0 0.00 0.00 0.00 74 1023.5
20260508200026 54 182 2.0 4.0 0.00 0.00 0.00 73 1023.2
20260508195046 54 186 3.0 4.0 0.00 0.00 0.00 72 1023.1
20260508194044 54 178 3.0 4.0 0.00 0.00 0.00 72 1022.6
20260508193024 54 186 3.0 5.0 0.00 0.00 0.00 72 1022.5
20260508192021 54 214 4.0 5.0 0.00 0.00 0.00 71 1022.6
20260508191020 54 141 3.0 4.0 0.00 0.00 0.00 73 1022.6
20260508190039 54 161 3.0 4.0 0.00 0.00 0.00 72 1022.5
20260508185017 54 174 2.0 4.0 0.00 0.00 0.00 72 1022.4
20260508184018 54 210 3.0 6.0 0.00 0.00 0.00 73 1022.4
20260508183045 54 173 2.0 5.0 0.00 0.00 0.00 72 1022.5
20260508182105 54 237 3.0 3.0 0.00 0.00 0.00 72 1022.4
20260508181042 54 164 3.0 4.0 0.00 0.00 0.00 72 1022.4
20260508180042 54 180 3.0 4.0 0.00 0.00 0.00 71 1022.2
20260508175039 54 183 3.0 4.0 0.00 0.00 0.00 72 1022.5
20260508174038 54 155 3.0 4.0 0.00 0.00 0.00 73 1022.3
20260508173057 54 208 4.0 5.0 0.00 0.00 0.00 72 1022.1
20260508172036 54 211 4.0 5.0 0.00 0.00 0.00 72 1022.3
20260508171055 53 198 5.0 6.0 0.00 0.00 0.00 74 1022.3
20260508170033 54 151 3.0 4.0 0.00 0.00 0.00 73 1022.2
20260508165032 54 181 2.0 4.0 0.00 0.00 0.00 72 1022.3
20260508164030 53 157 4.0 7.0 0.00 0.00 0.00 73 1022.1
20260508163029 53 175 2.0 4.0 0.00 0.00 0.00 74 1022.2
20260508162048 52 216 4.0 5.0 0.00 0.00 0.00 77 1022.1
20260508161027 51 126 3.0 4.0 0.00 0.00 0.00 79 1022.3
20260508160025 51 208 5.0 6.0 0.00 0.00 0.00 79 1022.1
20260508155024 49 220 3.0 4.0 0.00 0.00 0.00 84 1022.3
20260508154023 50 148 1.0 2.0 0.00 0.00 0.00 82 1022.1
20260508153022 50 108 2.0 3.0 0.00 0.00 0.00 81 1022.2
20260508152021 51 141 2.0 3.0 0.00 0.00 0.00 79 1022.0
20260508151019 51 198 2.0 2.0 0.00 0.00 0.00 80 1022.1
20260508150019 51 173 2.0 2.0 0.00 0.00 0.00 79 1022.1
20260508145017 51 157 1.0 3.0 0.00 0.00 0.00 79 1022.0
20260508144046 51 146 2.0 4.0 0.00 0.00 0.00 78 1022.0
20260508143044 51 139 3.0 5.0 0.00 0.00 0.00 78 1021.9
20260508142044 51 140 2.0 4.0 0.00 0.00 0.00 78 1021.9
20260508141042 52 152 3.0 4.0 0.00 0.00 0.00 77 1022.1
20260508140040 53 134 2.0 3.0 0.00 0.00 0.00 74 1022.2
20260508135039 53 154 2.0 4.0 0.00 0.00 0.00 73 1021.6
20260508134038 54 157 3.0 4.0 0.00 0.00 0.00 73 1021.7
20260508133036 54 154 3.0 4.0 0.00 0.00 0.00 72 1021.6
20260508132036 52 135 3.0 4.0 0.00 0.00 0.00 77 1021.7
20260508131034 54 141 2.0 2.0 0.00 0.00 0.00 73 1021.6
20260508130033 54 133 3.0 4.0 0.00 0.00 0.00 71 1021.7
20260508125032 54 144 4.0 5.0 0.00 0.00 0.00 72 1021.7
20260508124051 54 141 2.0 3.0 0.00 0.00 0.00 71 1021.8
20260508123029 55 148 3.0 5.0 0.00 0.00 0.00 71 1021.7
20260508122027 54 146 3.0 4.0 0.00 0.00 0.00 73 1021.8
20260508121026 54 136 3.0 4.0 0.00 0.00 0.00 73 1021.8
20260508120024 53 136 3.0 4.0 0.00 0.00 0.00 76 1021.9
20260508115023 53 145 3.0 4.0 0.00 0.00 0.00 77 1021.9
20260508114022 54 158 2.0 4.0 0.00 0.00 0.00 73 1021.6
20260508113042 53 149 3.0 4.0 0.00 0.00 0.00 79 1021.7
20260508112040 53 114 2.0 2.0 0.00 0.00 0.00 80 1021.5
20260508111019 54 126 3.0 3.0 0.00 0.00 0.00 79 1021.4
20260508110037 53 149 2.0 3.0 0.00 0.00 0.00 80 1021.5
20260508105037 53 132 3.0 4.0 0.00 0.00 0.00 81 1021.3
20260508104045 54 133 2.0 4.0 0.00 0.00 0.00 79 1021.3
20260508103104 54 124 3.0 3.0 0.00 0.00 0.00 78 1020.9
20260508102042 55 102 1.0 2.0 0.00 0.00 0.00 76 1020.8
20260508101041 55 127 1.0 2.0 0.00 0.00 0.00 76 1020.8
20260508100040 55 96 2.0 2.0 0.00 0.00 0.00 76 1020.7
20260508095058 56 123 2.0 4.0 0.00 0.00 0.00 75 1020.6
20260508094037 56 113 2.0 2.0 0.00 0.00 0.00 73 1020.4
20260508093056 55 134 2.0 3.0 0.00 0.00 0.00 76 1020.3
20260508092035 56 133 3.0 4.0 0.00 0.00 0.00 75 1020.2
20260508091033 56 125 2.0 3.0 0.00 0.00 0.00 72 1020.0
20260508090053 56 104 2.0 3.0 0.00 0.00 0.00 73 1019.8
20260508085031 57 120 3.0 4.0 0.00 0.00 0.00 72 1019.9
20260508084031 57 122 3.0 4.0 0.00 0.00 0.00 69 1019.8
20260508083029 58 114 3.0 4.0 0.00 0.00 0.00 72 1019.6
20260508082027 59 118 3.0 4.0 0.00 0.00 0.00 70 1019.4
20260508081026 61 126 2.0 4.0 0.00 0.00 0.00 65 1019.2
20260508080025 63 101 2.0 3.0 0.00 0.00 0.00 57 1019.0
20260508075044 64 153 2.0 3.0 0.00 0.00 0.00 52 1018.9
20260508074022 65 155 1.0 2.0 0.00 0.00 0.00 52 1018.5
20260508073021 65 201 1.0 3.0 0.00 0.00 0.00 53 1018.4
20260508072020 66 203 2.0 3.0 0.00 0.00 0.00 48 1018.0
20260508071019 66 170 3.0 4.0 0.00 0.00 0.00 48 1018.0
20260508070018 67 130 4.0 5.0 0.00 0.00 0.00 46 1017.6
20260508065017 67 155 3.0 4.0 0.00 0.00 0.00 45 1017.5
20260508064044 68 141 2.0 3.0 0.00 0.00 0.00 44 1017.3
20260508063043 69 92 2.0 4.0 0.00 0.00 0.00 43 1017.2
20260508062041 69 169 3.0 4.0 0.00 0.00 0.00 42 1017.1
20260508061121 70 183 2.0 2.0 0.00 0.00 0.00 41 1016.9
20260508060039 70 174 5.0 6.0 0.00 0.00 0.00 40 1016.9
20260508055038 70 220 4.0 7.0 0.00 0.00 0.00 40 1017.0
20260508054117 70 167 1.0 3.0 0.00 0.00 0.00 39 1016.8
20260508053036 70 180 3.0 5.0 0.00 0.00 0.00 38 1016.9
20260508052034 69 182 3.0 7.0 0.00 0.00 0.00 39 1016.8
20260508051033 70 161 6.0 8.0 0.00 0.00 0.00 38 1016.8
20260508050032 70 178 8.0 12.0 0.00 0.00 0.00 38 1016.8
20260508045030 70 238 3.0 4.0 0.00 0.00 0.00 37 1016.8
20260508044029 69 230 2.0 3.0 0.00 0.00 0.00 39 1016.6
20260508043028 70 177 6.0 11.0 0.00 0.00 0.00 36 1016.7
20260508042027 69 158 6.0 7.0 0.00 0.00 0.00 39 1016.7
20260508041025 69 167 8.0 11.0 0.00 0.00 0.00 37 1016.6
20260508040025 69 162 3.0 5.0 0.00 0.00 0.00 37 1016.9
20260508035023 68 155 5.0 5.0 0.00 0.00 0.00 37 1016.8
20260508034022 68 132 3.0 4.0 0.00 0.00 0.00 38 1016.7
20260508033101 69 202 5.0 6.0 0.00 0.00 0.00 37 1016.8